Tacoma Narrows, WA
on Saturday, December 15, 2012

Saturday
Previous Day Next Day
Daily Summary
 ActualAverageRecord
Temperature
Mean Temperature °F °F  
Max Temperature 41°F 44°F 52°F (2002)
Min Temperature 32°F 37°F 25°F (2008)
Degree Days
Heating Degree Days 28    
Moisture
Dew Point 33°F   
Average Humidity 83    
Maximum Humidity 92    
Minimum Humidity 73    
Precipitation
Precipitation 0.14 in in in ()
Wind
Wind Speed 7 mph   
Max Wind Speed 21 mph   
Max Gust Speed 30 mph   
Visibility 9 miles   
Events Rain   
Averages and records for this station are not official NWS values.
Key: T is trace of precipitation, MM is missing value
Source: NWS Daily Summary
Seasonal Weather Averages
Time(PST)TemperatureDew PointHumidity Pressure Visibility Wind DirectionWind SpeedGust SpeedPrecipitationEvents Conditions
12:53 AM 35.1°F 30.9°F 85% 29.91 in 10.0 miles Calm Calm - N/A   Clear
1:53 AM 32.0°F 30.0°F 92% 29.89 in 10.0 miles SSW 3.5 mph - N/A   Clear
2:53 AM 34.0°F 32.0°F 92% 29.90 in 10.0 miles WSW 3.5 mph - N/A   Mostly Cloudy
3:53 AM 37.0°F 33.1°F 86% 29.86 in 10.0 miles SSE 4.6 mph - N/A   Scattered Clouds
4:53 AM 37.0°F 30.9°F 79% 29.83 in 10.0 miles SE 5.8 mph - N/A   Overcast
5:53 AM 37.0°F 30.0°F 76% 29.81 in 10.0 miles SSE 6.9 mph - N/A   Overcast
6:53 AM 37.9°F 30.0°F 73% 29.79 in 10.0 miles SSW 6.9 mph - N/A   Overcast
7:53 AM 37.9°F 32.0°F 79% 29.78 in 10.0 miles South 10.4 mph - 0.00 in Rain Light Rain
8:53 AM 39.9°F 32.0°F 73% 29.74 in 10.0 miles SSE 8.1 mph - 0.00 in   Overcast
9:53 AM 39.0°F 32.0°F 76% 29.72 in 7.0 miles SSE 10.4 mph 21.9 mph 0.02 in Rain Light Rain
10:53 AM 39.0°F 33.1°F 79% 29.68 in 7.0 miles SSE 8.1 mph - 0.01 in   Overcast
11:53 AM 39.9°F 33.1°F 77% 29.62 in 10.0 miles SSE 3.5 mph - N/A   Overcast
12:53 PM 39.0°F 35.1°F 86% 29.57 in 8.0 miles WNW 3.5 mph - 0.02 in Rain Light Rain
1:20 PM 39.2°F 35.6°F 87% 29.55 in 2.0 miles Variable 3.5 mph - 0.04 in Rain Rain
1:25 PM 39.2°F 33.8°F 81% 29.55 in 3.0 miles Variable 3.5 mph - 0.06 in Rain Light Rain
1:53 PM 39.0°F 35.1°F 86% 29.55 in 4.0 miles North 3.5 mph - 0.07 in Rain Light Rain
2:53 PM 39.9°F 36.0°F 86% 29.55 in 10.0 miles SW 4.6 mph - 0.02 in Rain Light Rain
3:53 PM 41.0°F 35.1°F 79% 29.57 in 10.0 miles South 19.6 mph 28.8 mph 0.00 in Rain Light Rain
4:53 PM 39.9°F 35.1°F 83% 29.57 in 10.0 miles South 20.7 mph 26.5 mph 0.00 in   Overcast
5:53 PM 39.0°F 34.0°F 82% 29.60 in 10.0 miles South 18.4 mph 26.5 mph N/A   Overcast
6:53 PM 39.0°F 35.1°F 86% 29.60 in 10.0 miles SSW 18.4 mph 28.8 mph N/A   Overcast
7:53 PM 37.9°F 34.0°F 86% 29.61 in 10.0 miles South 20.7 mph 29.9 mph 0.00 in   Mostly Cloudy
8:36 PM 39.2°F 33.8°F 81% 29.62 in 10.0 miles SSW 16.1 mph - N/A   Scattered Clouds
8:53 PM 39.0°F 34.0°F 82% 29.64 in 10.0 miles SSW 13.8 mph 23.0 mph N/A   Clear
9:44 PM 39.2°F 35.6°F 87% 29.65 in 10.0 miles SSW 12.7 mph 24.2 mph N/A   Mostly Cloudy
9:53 PM 39.0°F 34.0°F 82% 29.67 in 10.0 miles SSW 11.5 mph 21.9 mph N/A   Mostly Cloudy
10:39 PM 37.4°F 33.8°F 87% 29.68 in 10.0 miles SSW 12.7 mph 21.9 mph N/A   Partly Cloudy
10:53 PM 37.9°F 34.0°F 86% 29.70 in 10.0 miles SSW 12.7 mph 20.7 mph N/A   Partly Cloudy
11:53 PM 37.9°F 34.0°F 86% 29.72 in 10.0 miles SSW 13.8 mph - N/A   Mostly Cloudy
Moon Phase
Dec. 15 Dec. 20 Dec. 28 Jan. 04 Jan. 11
Sunrise:07:50 AM (PST) Moon Rise:09:39 AM (PST)12/15
Sunset:04:20 PM (PST) Moon Set:07:40 PM (PST)12/15

Copyright © 2014 The Weather Underground, Inc.